This is the latest recevied weather packets stored in our database for station/object N3DOU-1. If no packets are shown the sender has not sent any weather packets the latest 10 day(s).
| Time | Temp. | Humidity | Pressure | Rain* | Wind** | Luminosity | Snow |
|---|---|---|---|---|---|---|---|
| 1777549284 | 11.67° C | 93% | 1008.1 hPa | 0 mm | - | - | - |
| 1777548384 | 10.56° C | 92% | 1008.3 hPa | 0 mm | - | - | - |
| 1777547489 | 10° C | 91% | 1008 hPa | 0 mm | - | - | - |
| 1777546584 | 10° C | 90% | 1008 hPa | 0 mm | - | - | - |
| 1777545683 | 10° C | 90% | 1007.9 hPa | 0 mm | - | - | - |
| 1777544785 | 10° C | 90% | 1007.8 hPa | 0 mm | - | - | - |
| 1777543884 | 10.56° C | 90% | 1007.8 hPa | 0 mm | - | - | - |
| 1777542984 | 11.11° C | 91% | 1007.8 hPa | 0 mm | - | - | - |
| 1777542085 | 11.11° C | 91% | 1007.8 hPa | 0 mm | - | - | - |
| 1777541184 | 11.11° C | 91% | 1007.8 hPa | 0 mm | - | - | - |
| 1777540284 | 11.11° C | 91% | 1007.6 hPa | 0 mm | - | - | - |
| 1777539384 | 11.11° C | 91% | 1007.5 hPa | 0 mm | - | - | - |
| 1777538484 | 11.11° C | 91% | 1007.4 hPa | 0 mm | - | - | - |
| 1777537583 | 11.11° C | 91% | 1007.4 hPa | 0 mm | - | - | - |
| 1777536683 | 10.56° C | 91% | 1007.3 hPa | 0 mm | - | - | - |
| 1777535784 | 10.56° C | 91% | 1007.1 hPa | 0 mm | - | - | - |
| 1777534883 | 10.56° C | 91% | 1006.8 hPa | 0 mm | - | - | - |
| 1777533983 | 10.56° C | 90% | 1007.1 hPa | 0 mm | - | - | - |
| 1777533083 | 10.56° C | 90% | 1006.9 hPa | 0 mm | - | - | - |
| 1777532187 | 10.56° C | 91% | 1007.1 hPa | 0 mm | - | - | - |
| 1777531286 | 10.56° C | 90% | 1007.2 hPa | 0 mm | - | - | - |
| 1777529485 | 10.56° C | 90% | 1007.5 hPa | 0 mm | - | - | - |
| 1777528585 | 10.56° C | 90% | 1007.8 hPa | 0 mm | - | - | - |
| 1777527683 | 10.56° C | 90% | 1007.9 hPa | 0 mm | - | - | - |
| 1777526783 | 10.56° C | 90% | 1008 hPa | 0 mm | - | - | - |
* Rain latest hour (hover to see other rain measurements)
** Current wind speed in m/s (hover to see current wind gust speed)